When you browse on this site, cookies collect data to enhance your experience and personalize the content and advertising you see.
Visit our Privacy Policy to learn more. By continuing to use the site, you agree to this use of cookies and data.
  • In Schweiz
  • Länderverzeichnis
  • Für 7 Tage
  • Wassertemperatur
  • Satellitenkarten
  • Wetterkarte
  • Widgets
  • user-avatar
    Anmelden

    Stündliche Wetter Limassol

    Heute, 20 März, Mittwoch

    Zeit Temperatur Niederschläge Wind Luftdruck Luftfeuchtigkeit
    00:00 +16°C° 0 mm 2 m/S 768 mmHg 86%
    01:00 +15°C° 0 mm 1 m/S 767 mmHg 87%
    02:00 +14°C° 0 mm 1 m/S 767 mmHg 87%
    03:00 +14°C° 0 mm 1 m/S 767 mmHg 87%
    04:00 +14°C° 0 mm 1 m/S 767 mmHg 86%
    05:00 +13°C° 0 mm 1 m/S 767 mmHg 86%
    06:00 +15°C° 0 mm 1 m/S 767 mmHg 76%
    07:00 +18°C° 0 mm 1 m/S 767 mmHg 67%
    08:00 +20°C° 0 mm 1 m/S 767 mmHg 57%
    09:00 +21°C° 0 mm 1 m/S 768 mmHg 54%
    10:00 +22°C° 0 mm 1 m/S 768 mmHg 50%
    11:00 +23°C° 0 mm 2 m/S 768 mmHg 47%
    12:00 +23°C° 0 mm 2 m/S 767 mmHg 49%
    13:00 +24°C° 0 mm 3 m/S 767 mmHg 50%
    14:00 +23°C° 0 mm 4 m/S 767 mmHg 51%
    15:00 +22°C° 0 mm 3 m/S 767 mmHg 54%
    16:00 +22°C° 0 mm 3 m/S 767 mmHg 57%
    17:00 +21°C° 0 mm 3 m/S 766 mmHg 60%
    18:00 +20°C° 0 mm 3 m/S 767 mmHg 67%
    19:00 +18°C° 0 mm 2 m/S 767 mmHg 74%
    20:00 +17°C° 0 mm 2 m/S 767 mmHg 80%
    21:00 +17°C° 0 mm 2 m/S 767 mmHg 78%
    22:00 +18°C° 0 mm 1 m/S 767 mmHg 77%
    23:00 +18°C° 0 mm 1 m/S 767 mmHg 75%

    Morgen, 21 März, Donnerstag

    Zeit Temperatur Niederschläge Wind Luftdruck Luftfeuchtigkeit
    00:00 +16°C° 0 mm 1 m/S 767 mmHg 74%
    01:00 +16°C° 0 mm 2 m/S 767 mmHg 74%
    02:00 +16°C° 0 mm 2 m/S 767 mmHg 73%
    03:00 +15°C° 0 mm 2 m/S 767 mmHg 71%
    04:00 +15°C° 0 mm 2 m/S 767 mmHg 70%
    05:00 +15°C° 0 mm 2 m/S 767 mmHg 68%
    06:00 +18°C° 0 mm 1 m/S 767 mmHg 60%
    07:00 +19°C° 0 mm 1 m/S 767 mmHg 52%
    08:00 +21°C° 0 mm 1 m/S 767 mmHg 44%
    09:00 +22°C° 0 mm 1 m/S 767 mmHg 41%
    10:00 +23°C° 0 mm 1 m/S 767 mmHg 37%
    11:00 +24°C° 0 mm 1 m/S 767 mmHg 34%
    12:00 +24°C° 0 mm 2 m/S 767 mmHg 36%
    13:00 +25°C° 0 mm 3 m/S 767 mmHg 37%
    14:00 +25°C° 0 mm 3 m/S 767 mmHg 38%
    15:00 +24°C° 0 mm 3 m/S 767 mmHg 42%
    16:00 +24°C° 0 mm 3 m/S 767 mmHg 45%
    17:00 +22°C° 0 mm 3 m/S 766 mmHg 49%
    18:00 +21°C° 0 mm 3 m/S 767 mmHg 56%
    19:00 +19°C° 0 mm 3 m/S 767 mmHg 63%
    20:00 +18°C° 0 mm 3 m/S 767 mmHg 69%
    21:00 +17°C° 0 mm 3 m/S 767 mmHg 69%
    22:00 +17°C° 0 mm 3 m/S 767 mmHg 69%
    23:00 +17°C° 0 mm 3 m/S 768 mmHg 68%

    übermorgen, 22 März, Freitag

    Zeit Temperatur Niederschläge Wind Luftdruck Luftfeuchtigkeit
    00:00 +17°C° 0 mm 2 m/S 767 mmHg 67%
    01:00 +16°C° 0 mm 2 m/S 767 mmHg 65%
    02:00 +16°C° 0 mm 2 m/S 767 mmHg 63%
    03:00 +16°C° 0 mm 2 m/S 767 mmHg 59%
    04:00 +15°C° 0 mm 2 m/S 767 mmHg 55%
    05:00 +15°C° 0 mm 1 m/S 767 mmHg 52%
    06:00 +18°C° 0 mm 1 m/S 767 mmHg 45%
    07:00 +20°C° 0 mm 1 m/S 768 mmHg 39%
    08:00 +22°C° 0 mm 1 m/S 768 mmHg 33%
    09:00 +23°C° 0 mm 1 m/S 768 mmHg 32%
    10:00 +24°C° 0 mm 2 m/S 768 mmHg 31%
    11:00 +24°C° 0 mm 2 m/S 768 mmHg 30%
    12:00 +25°C° 0 mm 2 m/S 767 mmHg 32%
    13:00 +25°C° 0 mm 3 m/S 767 mmHg 33%
    14:00 +25°C° 0 mm 3 m/S 767 mmHg 35%
    15:00 +24°C° 0 mm 3 m/S 767 mmHg 38%
    16:00 +24°C° 0 mm 3 m/S 766 mmHg 41%
    17:00 +22°C° 0 mm 3 m/S 766 mmHg 43%
    18:00 +20°C° 0 mm 2 m/S 767 mmHg 51%
    19:00 +19°C° 0 mm 2 m/S 767 mmHg 58%
    20:00 +18°C° 0 mm 1 m/S 767 mmHg 65%
    21:00 +17°C° 0 mm 2 m/S 767 mmHg 62%
    22:00 +16°C° 0 mm 2 m/S 767 mmHg 59%
    23:00 +16°C° 0 mm 2 m/S 767 mmHg 56%

    23 März, Samstag

    Zeit Temperatur Niederschläge Wind Luftdruck Luftfeuchtigkeit
    00:00 +16°C° 0 mm 2 m/S 767 mmHg 47%
    01:00 +16°C° 0 mm 3 m/S 767 mmHg 38%
    02:00 +16°C° 0 mm 3 m/S 766 mmHg 30%
    03:00 +16°C° 0 mm 3 m/S 766 mmHg 30%
    04:00 +16°C° 0 mm 3 m/S 766 mmHg 30%
    05:00 +15°C° 0 mm 2 m/S 766 mmHg 30%
    06:00 +17°C° 0 mm 2 m/S 767 mmHg 29%
    07:00 +19°C° 0 mm 2 m/S 767 mmHg 27%
    08:00 +21°C° 0 mm 2 m/S 767 mmHg 26%
    09:00 +21°C° 0 mm 2 m/S 767 mmHg 27%
    10:00 +23°C° 0 mm 2 m/S 767 mmHg 27%
    11:00 +24°C° 0 mm 2 m/S 767 mmHg 27%
    12:00 +24°C° 0 mm 2 m/S 767 mmHg 28%
    13:00 +24°C° 0 mm 2 m/S 766 mmHg 28%
    14:00 +25°C° 0 mm 2 m/S 766 mmHg 29%
    15:00 +24°C° 0 mm 2 m/S 766 mmHg 29%
    16:00 +24°C° 0 mm 2 m/S 766 mmHg 30%
    17:00 +23°C° 0 mm 2 m/S 766 mmHg 31%
    18:00 +20°C° 0 mm 2 m/S 766 mmHg 37%
    19:00 +19°C° 0 mm 1 m/S 766 mmHg 43%
    20:00 +16°C° 0 mm 1 m/S 766 mmHg 50%
    21:00 +16°C° 0 mm 1 m/S 766 mmHg 45%
    22:00 +16°C° 0 mm 1 m/S 766 mmHg 41%
    23:00 +16°C° 0 mm 2 m/S 766 mmHg 37%

    24 März, Sonntag

    Zeit Temperatur Niederschläge Wind Luftdruck Luftfeuchtigkeit
    00:00 +16°C° 0 mm 2 m/S 766 mmHg 35%
    01:00 +16°C° 0 mm 3 m/S 766 mmHg 33%
    02:00 +16°C° 0 mm 3 m/S 766 mmHg 32%
    03:00 +16°C° 0 mm 3 m/S 766 mmHg 32%
    04:00 +14°C° 0 mm 3 m/S 766 mmHg 33%
    05:00 +14°C° 0 mm 3 m/S 766 mmHg 33%
    06:00 +17°C° 0 mm 3 m/S 766 mmHg 31%
    07:00 +19°C° 0 mm 3 m/S 766 mmHg 29%
    08:00 +21°C° 0 mm 3 m/S 766 mmHg 26%
    09:00 +23°C° 0 mm 2 m/S 766 mmHg 27%
    10:00 +23°C° 0 mm 2 m/S 766 mmHg 27%
    11:00 +24°C° 0 mm 2 m/S 766 mmHg 27%
    12:00 +24°C° 0 mm 2 m/S 766 mmHg 28%
    13:00 +25°C° 0 mm 2 m/S 766 mmHg 29%
    14:00 +25°C° 0 mm 3 m/S 765 mmHg 30%
    15:00 +24°C° 0 mm 3 m/S 765 mmHg 32%
    16:00 +23°C° 0 mm 2 m/S 765 mmHg 35%
    17:00 +21°C° 0 mm 2 m/S 765 mmHg 37%
    18:00 +20°C° 0 mm 2 m/S 765 mmHg 43%
    19:00 +18°C° 0 mm 2 m/S 765 mmHg 48%
    20:00 +16°C° 0 mm 2 m/S 765 mmHg 54%
    21:00 +16°C° 0 mm 2 m/S 765 mmHg 52%
    22:00 +16°C° 0 mm 2 m/S 765 mmHg 49%
    23:00 +16°C° 0 mm 2 m/S 765 mmHg 47%

    25 März, Montag

    Zeit Temperatur Niederschläge Wind Luftdruck Luftfeuchtigkeit
    00:00 +14°C° 0 mm 3 m/S 764 mmHg 45%
    01:00 +14°C° 0 mm 3 m/S 764 mmHg 44%
    02:00 +14°C° 0 mm 3 m/S 764 mmHg 43%
    03:00 +14°C° 0 mm 3 m/S 764 mmHg 42%
    04:00 +13°C° 0 mm 3 m/S 764 mmHg 41%
    05:00 +14°C° 0 mm 2 m/S 764 mmHg 40%
    06:00 +16°C° 0 mm 2 m/S 764 mmHg 36%
    07:00 +19°C° 0 mm 1 m/S 764 mmHg 31%
    08:00 +21°C° 0 mm 1 m/S 764 mmHg 26%
    09:00 +22°C° 0 mm 1 m/S 764 mmHg 26%
    10:00 +23°C° 0 mm 1 m/S 764 mmHg 25%
    11:00 +24°C° 0 mm 1 m/S 764 mmHg 25%
    12:00 +24°C° 0 mm 2 m/S 764 mmHg 26%
    13:00 +23°C° 0 mm 4 m/S 764 mmHg 27%
    14:00 +23°C° 0 mm 5 m/S 764 mmHg 28%
    15:00 +23°C° 0 mm 4 m/S 764 mmHg 31%
    16:00 +22°C° 0 mm 4 m/S 764 mmHg 34%
    17:00 +21°C° 0 mm 4 m/S 764 mmHg 37%
    18:00 +20°C° 0 mm 4 m/S 764 mmHg 43%
    19:00 +18°C° 0 mm 4 m/S 764 mmHg 49%
    20:00 +17°C° 0 mm 4 m/S 764 mmHg 55%
    21:00 +16°C° 0 mm 3 m/S 764 mmHg 56%
    22:00 +16°C° 0 mm 3 m/S 764 mmHg 57%
    23:00 +16°C° 0 mm 3 m/S 764 mmHg 58%
    Mehr zeigen